#timestamp,LO_Frequency,Hit 
1502478015.4,286046995.5,N
1502478035.2,286046995.0,N
1502478055.0,286046995.2,N
1502478055.9,286046995.2,N
1502478075.8,286046994.8,N
1502478095.6,286046996.0,N
1502478115.4,286046996.1,N
1502478135.3,286046994.2,N
1502478155.1,286046994.2,N
1502478175.8,286046997.9,N
1502478195.7,286046999.2,N
1502478215.5,286046997.4,N
1502478235.3,286046999.5,N
1502478255.2,286046999.1,N
1502478275.9,286046997.4,N
1502478295.7,286046995.2,N
1502478315.5,286046997.7,N
1502478335.4,286046995.5,N
1502478355.2,286046996.8,N
1502478375.0,286046998.7,N
1502478375.9,286046998.7,N
1502478395.8,286046997.1,N
1502478415.6,286046997.0,N
1502478435.5,286046999.0,N
1502478455.3,286046998.2,N
1502478475.1,286047000.8,N
1502478495.8,286046998.9,N
1502478515.7,286046996.9,N
1502478535.5,286046999.4,N
1502478555.3,286046998.9,N
1502478575.2,286046995.5,N
1502478595.0,286046994.1,P
1502478595.9,286046994.1,P
1502478615.8,286046993.5,P
1502478635.6,286046994.0,P
1502478655.4,286046996.6,P
1502478675.3,286046996.5,P
1502478695.1,286046995.2,P
1502478696.0,286046995.2,P
1502478715.8,286047002.4,P
1502478735.7,286047001.5,N
1502478755.5,286047001.3,N
1502478775.3,286047003.7,N
1502478795.2,286047001.6,N
1502478815.9,286047001.7,N
1502478835.7,286047005.6,N
1502478855.6,286047002.1,N
1502478875.4,286047004.4,N
1502478895.2,286047002.1,N
1502478915.0,286047001.9,N
1502478915.9,286047001.9,N
1502478935.8,286047000.4,N
1502478955.6,286047001.1,N
1502478975.4,286047000.8,N
1502478995.3,286047001.0,N
1502479015.1,286047001.0,N
1502479035.8,286047002.6,N
1502479055.7,286046998.8,N
1502479075.5,286047000.8,N
1502479095.3,286047001.3,N
1502479115.2,286047004.4,N
1502479135.9,286047004.4,N
1502479155.7,286047001.7,N
1502479175.6,286047002.2,N
1502479195.4,286047002.5,N
1502479215.2,286047003.6,N
1502479235.0,286047003.2,N
1502479235.9,286047003.2,N
1502479255.8,286046999.7,N
1502479275.6,286047002.6,N
1502479295.4,286047003.1,N
1502479315.3,286047003.3,N
1502479335.1,286047003.1,N
1502479355.8,286047004.0,N
1502479375.7,286047002.3,N
1502479395.5,286047001.8,N
1502479415.3,286047002.6,N
1502479435.2,286047000.6,N
1502479455.9,286046999.7,N
1502479475.7,286047001.2,N
1502479495.6,286046998.4,N
1502479515.4,286046999.9,N
1502479535.2,286047000.0,N
1502479555.0,286047001.4,N
1502479555.9,286047001.4,N
1502479575.8,286046999.8,N
1502479595.6,286047002.5,N
1502479615.4,286047001.5,N
1502479635.3,286047001.3,N
1502479655.1,286047000.5,N
1502479675.8,286047000.5,N
1502479695.7,286047000.6,N
1502479715.5,286047002.1,N
1502479735.3,286047004.0,N
1502479755.2,286047001.6,N
1502479775.9,286046998.5,N
1502479795.7,286046998.6,N
1502479815.6,286046998.1,N
1502479835.4,286047000.3,N
1502479855.2,286046999.9,N
1502479875.0,286047002.8,N
1502479876.0,286047002.8,N
1502479895.8,286047004.1,N
1502479915.6,286047004.0,N
1502479935.4,286047000.9,N
1502479955.3,286046997.9,N
1502479975.1,286046995.6,N
1502479995.8,286046996.0,N
1502480015.7,286046992.1,P
1502480035.5,286046990.3,N
1502480055.3,286046991.1,N
1502480075.2,286046992.4,N
1502480095.0,286046992.1,N
1502480095.9,286046992.1,N
1502480115.7,286046992.6,N
1502480135.6,286046995.9,N
1502480155.4,286046994.1,N
1502480175.2,286046992.1,N
1502480195.1,286046995.6,N
1502480196.0,286046995.6,N
1502480215.8,286046995.3,N
1502480235.6,286046996.5,N
1502480255.5,286046996.9,N
1502480275.3,286046998.7,N
1502480295.1,286047001.6,N
1502480315.9,286047001.5,N
1502480335.7,286047003.5,N
1502480355.5,286047004.1,N
1502480375.4,286046998.1,N
1502480395.2,286047002.5,N
1502480415.0,286046998.9,N
1502480415.9,286046998.9,N
1502480435.7,286047000.3,N
1502480455.6,286046999.0,N
1502480475.4,286046998.8,N
1502480495.2,286046998.4,N
1502480515.1,286046998.9,N
1502480516.0,286046998.9,N
1502480535.8,286046999.3,N
1502480555.6,286046997.2,N
1502480575.5,286046998.0,N
1502480595.3,286046997.2,N
1502480615.1,286046997.2,N
1502480635.9,286046997.8,N
1502480655.7,286046995.5,N
1502480675.5,286046994.9,N
1502480695.4,286046997.6,N
1502480715.2,286046999.0,N
1502480735.0,286046999.5,N
1502480735.9,286046999.5,N
1502480755.8,286046998.6,N
1502480775.6,286046997.5,N
1502480795.4,286046999.6,N
1502480815.2,286046999.2,N
1502480835.1,286046997.1,N
1502480836.0,286046997.1,N
1502480855.8,286046998.8,N
1502480875.6,286047000.5,N
1502480895.5,286046998.7,N
1502480915.3,286046996.7,N
1502480935.1,286046998.0,N
1502480955.9,286046996.9,N
1502480975.7,286046999.1,N
1502480995.5,286046999.0,N
1502481015.4,286046998.9,N
1502481035.2,286046998.4,N
1502481055.0,286047002.4,N
1502481055.9,286047002.4,N
1502481075.8,286047000.7,N
1502481095.6,286047000.8,N
1502481115.4,286046998.6,N
1502481135.3,286047002.4,N
1502481155.1,286047002.2,N
1502481156.0,286047002.2,N
1502481175.8,286047004.4,N
1502481195.7,286047001.5,N
1502481215.5,286047001.8,N
1502481235.3,286047001.4,N
1502481255.1,286046998.1,N
1502481275.9,286046998.4,N
1502481295.7,286046999.4,N
1502481315.5,286046998.8,N
1502481335.4,286046998.3,N
1502481355.2,286046998.7,N
1502481375.0,286047002.7,N
1502481375.9,286047002.7,N
1502481395.8,286047002.8,N
1502481415.6,286047000.8,N
1502481435.4,286046998.4,N
1502481455.3,286047000.8,N
1502481475.1,286047001.1,N
1502481476.0,286047001.1,N
1502481495.8,286047002.3,N
1502481515.7,286047005.9,P
1502481535.5,286046999.8,N
1502481555.3,286047000.0,N
1502481575.2,286047000.3,N
1502481595.9,286047000.7,N
